EW6527 Weather Reports


time (UTC)temp
F
wind
direction
speed
knots
gust
knots
rain 1hr
in
rain 24hr
in
rain mn
in
humidity
%
barometer
mb
20260507022934 66 0 0.0 0.0 0.00 0.00 0.00 61 1017.6
20260507021934 66 0 0.0 0.0 0.00 0.00 0.00 62 1017.6
20260507020934 66 0 0.0 0.0 0.00 0.00 0.00 63 1017.5
20260507020418 66 0 0.0 0.0 0.00 0.00 0.00 63 1017.4
20260507014934 66 0 0.0 0.0 0.00 0.00 0.00 62 1017.2
20260507013934 66 0 0.0 0.0 0.00 0.00 0.00 60 1017.3
20260507012934 66 0 0.0 0.0 0.00 0.00 0.00 61 1017.5
20260507011934 66 0 0.0 0.0 0.00 0.00 0.00 62 1017.4
20260507011907 67 0 0.0 0.0 0.00 0.00 0.00 63 1017.3
20260507005934 67 0 0.0 0.0 0.00 0.00 0.00 63 1017.3
20260507005412 67 0 0.0 0.0 0.00 0.00 0.00 61 1017.2
20260507003934 67 0 0.0 0.0 0.00 0.00 0.00 59 1017.3
20260507003420 67 0 0.0 0.0 0.00 0.00 0.00 58 1017.2
20260507001934 67 0 0.0 0.0 0.00 0.00 0.00 58 1017.2
20260507000935 67 0 0.0 0.0 0.00 0.00 0.00 59 1017.2
20260506235934 67 0 0.0 0.0 0.00 0.00 0.00 60 1017.2
20260506234934 66 0 0.0 0.0 0.00 0.00 0.00 61 1017.1
20260506233933 66 0 0.0 0.0 0.00 0.00 0.00 61 1017.2
20260506232932 67 0 0.0 0.0 0.00 0.00 0.00 61 1017.2
20260506231932 67 0 0.0 0.0 0.00 0.00 0.00 60 1017.2
20260506231415 67 0 0.0 0.0 0.00 0.00 0.00 60 1017.2
20260506225931 67 0 0.0 0.0 0.00 0.00 0.00 60 1017.3
20260506225410 67 0 0.0 0.0 0.00 0.00 0.00 60 1017.3
20260506224408 67 0 0.0 0.0 0.00 0.00 0.00 60 1017.5
20260506222930 67 0 0.0 0.0 0.00 0.00 0.00 60 1017.4
20260506221930 67 0 0.0 0.0 0.00 0.00 0.00 60 1017.4
20260506220930 67 0 0.0 0.0 0.00 0.00 0.00 61 1017.3
20260506215929 68 0 0.0 0.0 0.00 0.00 0.00 60 1017.4
20260506214930 68 0 0.0 0.0 0.00 0.00 0.00 61 1017.6
20260506213929 68 0 0.0 0.0 0.00 0.00 0.00 60 1017.7
20260506212929 68 0 0.0 0.0 0.00 0.00 0.00 60 1017.7
20260506211929 68 0 0.0 0.0 0.00 0.00 0.00 60 1017.8
20260506210929 68 0 0.0 0.0 0.00 0.00 0.00 59 1017.7
20260506205930 68 0 0.0 0.0 0.00 0.00 0.00 59 1017.6
20260506205424 68 0 0.0 0.0 0.00 0.00 0.00 60 1017.6
20260506204422 68 0 0.0 0.0 0.00 0.00 0.00 61 1017.4
20260506202930 69 0 0.0 0.0 0.00 0.00 0.00 69 1017.4
20260506201928 69 0 0.0 0.0 0.00 0.00 0.00 71 1017.4
20260506200929 69 0 0.0 0.0 0.00 0.00 0.00 70 1017.4
20260506195929 69 0 0.0 0.0 0.00 0.00 0.00 69 1017.4
20260506195420 70 0 0.0 0.0 0.00 0.00 0.00 68 1017.3
20260506193930 70 0 0.0 0.0 0.00 0.00 0.00 66 1017.2
20260506192929 70 0 0.0 0.0 0.00 0.00 0.00 65 1017.1
20260506191928 70 0 0.0 0.0 0.00 0.00 0.00 65 1017.1
20260506191418 71 0 0.0 0.0 0.00 0.00 0.00 65 1017.1
20260506185927 71 0 0.0 0.0 0.00 0.00 0.00 65 1017.1
20260506184927 71 0 0.0 0.0 0.00 0.00 0.00 66 1017.0
20260506183927 71 0 0.0 0.0 0.00 0.00 0.00 65 1016.9
20260506182927 71 0 0.0 0.0 0.00 0.00 0.00 63 1016.8
20260506182555 71 0 0.0 0.0 0.00 0.00 0.00 59 1016.8
20260506182359 71 0 0.0 0.0 0.00 0.00 0.00 58 1016.7
20260506175925 71 0 0.0 0.0 0.00 0.00 0.00 59 1016.7
20260506175412 71 0 0.0 0.0 0.00 0.00 0.00 57 1016.8
20260506173924 72 0 0.0 0.0 0.00 0.00 0.00 56 1016.8
20260506172924 72 0 0.0 0.0 0.00 0.00 0.00 59 1016.7
20260506172409 72 0 0.0 0.0 0.00 0.00 0.00 58 1016.6
20260506171411 71 0 0.0 0.0 0.00 0.00 0.00 58 1016.6
20260506170323 71 0 0.0 0.0 0.00 0.00 0.00 60 1016.6
20260506170108 71 0 0.0 0.0 0.00 0.00 0.00 60 1016.6
20260506163923 71 0 0.0 0.0 0.00 0.00 0.00 57 1016.6
20260506162922 72 0 0.0 0.0 0.00 0.00 0.00 56 1016.8
20260506161922 72 0 0.0 0.0 0.00 0.00 0.00 54 1016.9
20260506160922 73 0 0.0 0.0 0.00 0.00 0.00 53 1016.8
20260506155923 74 0 0.0 0.0 0.00 0.00 0.00 49 1017.0
20260506154923 76 0 0.0 0.0 0.00 0.00 0.00 50 1017.0
20260506153922 79 0 0.0 0.0 0.00 0.00 0.00 46 1016.9
20260506153357 81 0 0.0 0.0 0.00 0.00 0.00 34 1016.4
20260506151920 83 0 0.0 0.0 0.00 0.00 0.00 33 1016.4
20260506150921 83 0 0.0 0.0 0.00 0.00 0.00 33 1016.4
20260506145921 83 0 0.0 0.0 0.00 0.00 0.00 33 1016.5
20260506144919 83 0 0.0 0.0 0.00 0.00 0.00 32 1016.6
20260506143919 85 0 0.0 0.0 0.00 0.00 0.00 30 1016.6
20260506143358 86 0 0.0 0.0 0.00 0.00 0.00 29 1016.6
20260506141918 87 0 0.0 0.0 0.00 0.00 0.00 28 1016.7
20260506140919 89 0 0.0 0.0 0.00 0.00 0.00 27 1016.7
20260506135918 88 0 0.0 0.0 0.00 0.00 0.00 28 1016.5
20260506134919 88 0 0.0 0.0 0.00 0.00 0.00 28 1016.6
20260506133919 87 0 0.0 0.0 0.00 0.00 0.00 27 1016.8
20260506133406 88 0 0.0 0.0 0.00 0.00 0.00 28 1016.8
20260506131918 89 0 0.0 0.0 0.00 0.00 0.00 26 1017.0
20260506130917 88 0 0.0 0.0 0.00 0.00 0.00 27 1017.1
20260506125917 88 0 0.0 0.0 0.00 0.00 0.00 29 1017.0
20260506124914 87 0 0.0 0.0 0.00 0.00 0.00 29 1017.1
20260506123915 86 0 0.0 0.0 0.00 0.00 0.00 30 1017.2
20260506122915 85 0 0.0 0.0 0.00 0.00 0.00 33 1017.3
20260506121914 84 0 0.0 0.0 0.00 0.00 0.00 32 1017.3
20260506120914 83 0 0.0 0.0 0.00 0.00 0.00 34 1017.4
20260506115913 82 0 0.0 0.0 0.00 0.00 0.00 35 1017.4
20260506114912 82 0 0.0 0.0 0.00 0.00 0.00 34 1017.4
20260506114347 81 0 0.0 0.0 0.00 0.00 0.00 35 1017.5
20260506112910 81 0 0.0 0.0 0.00 0.00 0.00 36 1017.5
20260506112353 80 0 0.0 0.0 0.00 0.00 0.00 37 1017.6
20260506110910 79 0 0.0 0.0 0.00 0.00 0.00 37 1017.6
20260506105910 79 0 0.0 0.0 0.00 0.00 0.00 39 1017.6
20260506104911 77 0 0.0 0.0 0.00 0.00 0.00 40 1017.9
20260506104349 76 0 0.0 0.0 0.00 0.00 0.00 42 1017.7
20260506102908 75 0 0.0 0.0 0.00 0.00 0.00 43 1017.7
20260506101908 75 0 0.0 0.0 0.00 0.00 0.00 45 1017.7
20260506100916 74 0 0.0 0.0 0.00 0.00 0.00 45 1017.7
20260506095908 74 0 0.0 0.0 0.00 0.00 0.00 45 1017.8
20260506095350 73 0 0.0 0.0 0.00 0.00 0.00 48 1017.7
20260506093906 73 0 0.0 0.0 0.00 0.00 0.00 48 1017.7
20260506092906 72 0 0.0 0.0 0.00 0.00 0.00 48 1017.6
20260506091905 72 0 0.0 0.0 0.00 0.00 0.00 49 1017.7
20260506090906 71 0 0.0 0.0 0.00 0.00 0.00 50 1017.6
20260506085906 71 0 0.0 0.0 0.00 0.00 0.00 50 1017.7
20260506084906 71 0 0.0 0.0 0.00 0.00 0.00 50 1017.6
20260506083907 71 0 0.0 0.0 0.00 0.00 0.00 50 1017.6
20260506082912 71 0 0.0 0.0 0.00 0.00 0.00 50 1017.5
20260506082818 70 0 0.0 0.0 0.00 0.00 0.00 51 1017.4
20260506080905 70 0 0.0 0.0 0.00 0.00 0.00 51 1017.4
20260506071908 69 0 0.0 0.0 0.00 0.00 0.00 50 1017.1
20260506070904 69 0 0.0 0.0 0.00 0.00 0.00 50 1017.0
20260506061901 67 0 0.0 0.0 0.00 0.00 0.00 52 1016.8
20260506060902 67 0 0.0 0.0 0.00 0.00 0.00 53 1016.8
20260506050854 65 0 0.0 0.0 0.00 0.00 0.00 52 1016.7
20260506050338 66 0 0.0 0.0 0.00 0.00 0.00 51 1016.7
20260506044855 66 0 0.0 0.0 0.00 0.00 0.00 50 1016.6
20260506044332 66 0 0.0 0.0 0.00 0.00 0.00 49 1016.6
20260506042855 66 0 0.0 0.0 0.00 0.00 0.00 49 1016.4
20260506042253 66 0 0.0 0.0 0.00 0.00 0.00 48 1016.3
20260506042026 66 0 0.0 0.0 0.00 0.00 0.00 48 1016.4
20260506040334 66 0 0.0 0.0 0.00 0.00 0.00 49 1016.2
20260506034853 66 0 0.0 0.0 0.00 0.00 0.00 48 1016.2
20260506033851 66 0 0.0 0.0 0.00 0.00 0.00 47 1016.3
20260506032851 66 0 0.0 0.0 0.00 0.00 0.00 47 1016.3
20260506031851 66 0 0.0 0.0 0.00 0.00 0.00 47 1016.3
20260506030851 65 0 0.0 0.0 0.00 0.00 0.00 47 1016.3
20260506025851 65 0 0.0 0.0 0.00 0.00 0.00 47 1016.3
20260506024851 65 0 0.0 0.0 0.00 0.00 0.00 47 1016.3
20260506023851 66 0 0.0 0.0 0.00 0.00 0.00 47 1016.3